EW1914 Weather Reports


time (UTC)temp
C
wind
direction
speed
KPH
gust
KPH
rain 1hr
cm
rain 24hr
cm
rain mn
cm
humidity
%
barometer
mb
20260505023000 22 0.0 0.0 0.00 0.00 0.00 65 1009.0
20260505020959 23 0.0 0.0 0.00 0.00 0.00 65 1009.0
20260505014959 23 0.0 0.0 0.00 0.00 0.00 63 1009.1
20260505013959 23 0.0 0.0 0.00 0.00 0.00 63 1009.0
20260505013006 23 0.0 0.0 0.00 0.00 0.00 62 1009.1
20260505012000 23 0.0 0.0 0.00 0.00 0.00 62 1009.2
20260505010959 23 0.0 0.0 0.00 0.00 0.00 60 1009.3
20260505010006 23 0.0 0.0 0.00 0.00 0.00 61 1009.3
20260505004958 23 0.0 0.0 0.00 0.00 0.00 61 1009.4
20260505003959 24 0.0 0.0 0.00 0.00 0.00 59 1009.4
20260505003005 24 0.0 0.0 0.00 0.00 0.00 60 1009.4
20260505001959 24 0.0 0.0 0.00 0.00 0.00 59 1009.5
20260505000959 24 0.0 0.0 0.00 0.00 0.00 60 1009.5
20260504235000 24 0.0 0.0 0.00 0.00 0.00 57 1009.7
20260504233959 24 0.0 0.0 0.00 0.00 0.00 56 1009.7
20260504233001 24 0.0 0.0 0.00 0.00 0.00 57 1009.8
20260504230959 24 0.0 0.0 0.00 0.00 0.00 57 1010.0
20260504230001 24 0.0 0.0 0.00 0.00 0.00 56 1010.1
20260504224958 23 0.0 0.0 0.00 0.00 0.00 57 1010.2
20260504223959 23 0.0 0.0 0.00 0.00 0.00 58 1010.3
20260504223000 23 0.0 0.0 0.00 0.00 0.00 56 1010.5
20260504221959 23 0.0 0.0 0.00 0.00 0.00 59 1010.7
20260504220959 22 0.0 0.0 0.00 0.00 0.00 59 1010.8
20260504220000 22 0.0 0.0 0.00 0.00 0.00 60 1010.9
20260504211958 21 0.0 0.0 0.00 0.00 0.00 62 1011.3
20260504210000 21 0.0 0.0 0.00 0.00 0.00 64 1011.7
20260504204959 21 0.0 0.0 0.00 0.00 0.00 65 1011.9
20260504203000 20 0.0 0.0 0.00 0.00 0.00 68 1012.1
20260504201958 19 0.0 0.0 0.00 0.00 0.00 68 1012.2
20260504200959 19 0.0 0.0 0.00 0.00 0.00 69 1012.3
20260504200000 18 0.0 0.0 0.00 0.00 0.00 68 1012.4
20260504194957 18 0.0 0.0 0.00 0.00 0.00 69 1012.5
20260504193958 18 0.0 0.0 0.00 0.00 0.00 70 1012.5
20260504192959 18 0.0 0.0 0.00 0.00 0.00 73 1012.6
20260504191958 17 0.0 0.0 0.00 0.00 0.00 73 1012.7
20260504190957 17 0.0 0.0 0.00 0.00 0.00 75 1012.7
20260504190001 17 0.0 0.0 0.00 0.00 0.00 75 1012.8
20260504184958 16 0.0 0.0 0.00 0.00 0.00 76 1012.9
20260504183957 16 0.0 0.0 0.00 0.00 0.00 77 1013.0
20260504181959 16 0.0 0.0 0.00 0.00 0.00 78 1012.8
20260504180957 15 0.0 0.0 0.00 0.00 0.00 80 1012.9
20260504174958 15 0.0 0.0 0.00 0.00 0.00 79 1012.9
20260504172959 15 0.0 0.0 0.00 0.00 0.00 81 1012.9
20260504170958 15 0.0 0.0 0.00 0.00 0.00 80 1012.8
20260504150958 13 0.0 0.0 0.00 0.00 0.00 83 1012.3
20260504140957 13 0.0 0.0 0.00 0.00 0.00 84 1011.5
20260504081958 20 0.0 0.0 0.00 0.00 0.00 59 1007.5
20260504080957 20 0.0 0.0 0.00 0.00 0.00 59 1007.4
20260504050004 23 0.0 0.0 0.00 0.00 0.00 47 1006.4
20260504044000 24 0.0 0.0 0.00 0.00 0.00 47 1006.5
20260504043002 24 0.0 0.0 0.00 0.00 0.00 47 1006.3
20260504042000 25 0.0 0.0 0.00 0.00 0.00 47 1006.3
20260504040004 25 0.0 0.0 0.00 0.00 0.00 45 1006.0
20260504034959 26 0.0 0.0 0.00 0.00 0.00 44 1006.0
20260504033959 26 0.0 0.0 0.00 0.00 0.00 43 1005.9
20260504033000 26 0.0 0.0 0.00 0.00 0.00 43 1005.8
20260504030001 27 0.0 0.0 0.00 0.00 0.00 41 1005.6
20260504024958 28 0.0 0.0 0.00 0.00 0.00 40 1005.4
20260504023959 28 0.0 0.0 0.00 0.00 0.00 39 1005.4